KC7NGC-B Weather Reports


time (UTC)temp
C
wind
direction
speed
KPH
gust
KPH
rain 1hr
cm
rain 24hr
cm
rain mn
cm
humidity
%
barometer
mb
20240222114543 5 225 9.7 12.9 0.00 0.00 0.00 85 1025.9
20240222113521 5 217 12.9 19.3 0.00 0.00 0.00 85 1025.8
20240222112518 5 217 8.0 12.9 0.00 0.00 0.00 85 1025.8
20240222111516 5 210 11.3 16.1 0.00 0.00 0.00 84 1025.7
20240222110534 5 215 16.1 20.9 0.00 0.00 0.00 84 1025.4
20240222105532 6 210 14.5 17.7 0.00 0.00 0.00 82 1025.4
20240222104530 6 208 14.5 20.9 0.00 0.00 0.00 82 1025.5
20240222103527 6 204 14.5 20.9 0.00 0.00 0.00 82 1025.3
20240222102525 6 209 12.9 20.9 0.00 0.00 0.00 82 1025.1
20240222101524 6 214 14.5 19.3 0.00 0.00 0.00 81 1025.1
20240222100520 6 211 11.3 17.7 0.00 0.00 0.00 81 1025.0
20240222095518 6 209 11.3 16.1 0.00 0.00 0.00 81 1025.0
20240222094516 6 213 11.3 16.1 0.00 0.00 0.00 81 1024.9
20240222093533 6 215 11.3 17.7 0.00 0.00 0.00 81 1025.0
20240222092532 6 215 8.0 20.9 0.00 0.00 0.00 81 1025.0
20240222091529 6 223 8.0 11.3 0.00 0.00 0.00 83 1024.9
20240222090527 6 209 8.0 16.1 0.00 0.00 0.00 83 1024.8
20240222085525 6 213 11.3 17.7 0.00 0.00 0.00 83 1024.7
20240222084543 6 225 16.1 27.4 0.00 0.00 0.00 83 1024.7
20240222083520 6 203 14.5 19.3 0.00 0.00 0.00 83 1024.8
20240222082518 6 208 16.1 20.9 0.00 0.00 0.00 82 1024.6
20240222081517 6 208 19.3 24.1 0.00 0.00 0.00 82 1024.4
20240222080554 6 215 16.1 27.4 0.00 0.00 0.00 82 1024.5
20240222075531 6 212 11.3 17.7 0.00 0.00 0.00 83 1024.1
20240222074529 6 212 16.1 20.9 0.00 0.00 0.00 84 1024.3
20240222073527 6 273 6.4 16.1 0.00 0.00 0.00 86 1024.2
20240222072525 6 294 8.0 9.7 0.00 0.00 0.00 85 1024.2
20240222071522 6 228 8.0 17.7 0.00 0.00 0.00 84 1024.0
20240222070520 6 220 8.0 11.3 0.00 0.00 0.00 84 1024.0
20240222065518 6 320 9.7 16.1 0.00 0.00 0.00 84 1023.8
20240222064516 6 358 3.2 4.8 0.00 0.00 0.00 84 1023.8
20240222063533 6 330 9.7 14.5 0.00 0.00 0.00 84 1023.7
20240222062551 7 347 9.7 16.1 0.00 0.00 0.00 83 1023.7
20240222061530 6 1 9.7 11.3 0.00 0.00 0.00 85 1023.4
20240222060527 7 345 8.0 9.7 0.00 0.00 0.00 85 1023.4
20240222055524 7 326 3.2 4.8 0.00 0.00 0.00 84 1023.4
20240222054522 7 216 9.7 16.1 0.00 0.00 0.00 83 1023.1
20240222053520 7 202 9.7 14.5 0.00 0.00 0.00 82 1023.0
20240222052518 7 206 9.7 16.1 0.00 0.00 0.00 81 1022.8
20240222051516 8 198 11.3 17.7 0.00 0.00 0.00 81 1022.7
20240222050534 7 196 16.1 20.9 0.00 0.00 0.00 82 1022.6
20240222045531 8 209 8.0 12.9 0.00 0.00 0.00 83 1022.6
20240222044529 8 202 9.7 14.5 0.00 0.00 0.00 82 1022.2
20240222043527 8 211 12.9 20.9 0.00 0.00 0.00 82
20240222042524 8 201 9.7 14.5 0.00 0.00 0.00 83
20240222041523 8 203 11.3 17.7 0.00 0.00 0.00 82
20240222040520 8 203 11.3 17.7 0.00 0.00 0.00 82
20240222035518 7 201 11.3 17.7 0.00 0.00 0.00 83
20240222034616 7 186 9.7 16.1 0.00 0.00 0.00 83 1021.9
20240222033533 7 28 6.4 9.7 0.00 0.00 0.00 83 1021.6
20240222032530 7 37 4.8 8.0 0.00 0.00 0.00 83
20240222031529 8 231 11.3 16.1 0.00 0.00 0.00 80 1021.4
20240222030526 7 209 6.4 8.0 0.00 0.00 0.00 80 1021.1
20240222025524 7 221 9.7 14.5 0.00 0.00 0.00 82 1021.0
20240222024522 7 266 3.2 3.2 0.00 0.00 0.00 82 1021.0
20240222023520 7 169 4.8 6.4 0.00 0.00 0.00 81 1020.9
20240222022517 7 204 3.2 6.4 0.00 0.00 0.00 81 1020.8
20240222021535 7 164 3.2 3.2 0.00 0.00 0.00 80 1020.8
20240222020533 7 62 3.2 4.8 0.00 0.00 0.00 80 1020.8
20240222015530 7 0.0 1.6 0.00 0.00 0.00 78 1020.6
20240222014608 7 275 3.2 3.2 0.00 0.00 0.00 78 1020.5
20240222013526 8 338 3.2 4.8 0.00 0.00 0.00 75 1020.4
20240222012524 8 168 6.4 8.0 0.00 0.00 0.00 76 1020.2
20240222011602 8 182 3.2 3.2 0.00 0.00 0.00 75 1020.1
20240222010519 8 20 3.2 4.8 0.00 0.00 0.00 75 1019.9
20240222005537 9 201 3.2 4.8 0.00 0.00 0.00 73 1019.8
20240222004535 9 273 6.4 8.0 0.00 0.00 0.00 72 1019.6
20240222003533 9 180 4.8 9.7 0.00 0.00 0.00 72 1019.6
20240222002530 9 194 6.4 11.3 0.00 0.00 0.00 74 1019.5
20240222001528 8 196 11.3 17.7 0.00 0.00 0.00 76 1019.4
20240222000526 9 197 6.4 11.3 0.00 0.00 0.00 75 1019.2
20240221235523 10 204 9.7 19.3 0.00 0.00 0.00 71 1018.9
20240221234543 10 236 11.3 17.7 0.00 0.00 0.00 70 1019.1
20240221233521 10 212 8.0 9.7 0.00 0.00 0.00 69 1018.9
20240221232517 11 203 9.7 16.1 0.00 0.00 0.00 66 1018.8
20240221231555 11 254 4.8 12.9 0.00 0.00 0.00 66 1018.9
20240221230532 11 251 12.9 17.7 0.00 0.00 0.00 64 1018.9
20240221225530 11 263 8.0 14.5 0.00 0.00 0.00 65 1019.0
20240221224548 11 216 8.0 9.7 0.00 0.00 0.00 66 1018.8
20240221223546 11 276 8.0 16.1 0.00 0.00 0.00 66 1018.8
20240221222524 11 186 6.4 9.7 0.00 0.00 0.00 66 1018.9
20240221221521 10 309 6.4 8.0 0.00 0.00 0.00 70 1018.9
20240221220519 10 199 4.8 8.0 0.00 0.00 0.00 75 1018.9
20240221215557 10 173 3.2 6.4 0.00 0.00 0.00 74 1018.6
20240221214534 11 221 8.0 11.3 0.00 0.00 0.00 72 1018.8
20240221213532 9 328 4.8 6.4 0.00 0.00 0.00 76 1018.8
20240221212530 10 324 6.4 8.0 0.00 0.00 0.00 76 1018.6
20240221211529 10 24 3.2 4.8 0.00 0.00 0.00 74 1018.5
20240221210545 10 136 3.2 4.8 0.00 0.00 0.00 73 1018.4
20240221205523 9 150 4.8 8.0 0.00 0.00 0.00 74 1018.4
20240221204521 9 178 1.6 3.2 0.00 0.00 0.00 76 1018.3
20240221203518 9 0.0 3.2 0.00 0.00 0.00 75 1018.4
20240221202516 9 354 4.8 6.4 0.00 0.00 0.00 78 1018.3
20240221201535 9 17 4.8 8.0 0.00 0.00 0.00 76 1018.4
20240221200532 8 128 3.2 4.8 0.00 0.00 0.00 76 1018.5
20240221195549 8 36 4.8 6.4 0.00 0.00 0.00 78 1018.3
20240221194527 8 0.0 1.6 0.00 0.00 0.00 79 1018.2
20240221193545 8 79 3.2 4.8 0.00 0.00 0.00 81 1018.2
20240221192523 7 51 4.8 4.8 0.00 0.00 0.00 81 1018.4
20240221191541 7 214 3.2 4.8 0.00 0.00 0.00 80 1018.3
20240221190518 7 190 1.6 4.8 0.00 0.00 0.00 82 1018.2
20240221185516 7 209 3.2 3.2 0.00 0.00 0.00 83 1018.2
20240221184534 7 305 3.2 4.8 0.00 0.00 0.00 85 1018.1
20240221183532 7 286 6.4 9.7 0.00 0.00 0.00 86 1018.1
20240221182529 6 216 1.6 4.8 0.00 0.00 0.00 86 1017.9
20240221181608 6 188 3.2 8.0 0.00 0.00 0.00 85 1017.8
20240221180545 7 305 8.0 11.3 0.00 0.00 0.00 85 1017.9
20240221175522 6 216 3.2 6.4 0.00 0.00 0.00 86 1017.6
20240221174520 6 142 1.6 3.2 0.00 0.00 0.00 85 1017.5
20240221173518 6 184 4.8 8.0 0.00 0.00 0.00 86 1017.3
20240221172515 6 167 4.8 6.4 0.00 0.00 0.00 87 1017.4
20240221171553 6 215 1.6 3.2 0.00 0.00 0.00 87 1017.1
20240221170531 6 113 1.6 4.8 0.00 0.00 0.00 88 1017.1
20240221165529 6 205 1.6 3.2 0.00 0.00 0.00 88 1017.1
20240221164527 6 75 1.6 3.2 0.00 0.00 0.00 88 1016.8
20240221163525 5 203 0.0 3.2 0.00 0.00 0.00 90 1016.9
20240221162522 5 171 3.2 4.8 0.00 0.00 0.00 92 1016.8
20240221161520 5 0.0 1.6 0.00 0.00 0.00 90 1016.6
20240221160517 5 339 1.6 3.2 0.00 0.00 0.00 90 1016.5
20240221155536 5 314 1.6 3.2 0.00 0.00 0.00 91 1016.4
20240221154534 5 335 0.0 3.2 0.00 0.00 0.00 92 1016.4
20240221153531 5 175 0.0 3.2 0.00 0.00 0.00 91 1016.4
20240221152609 5 0.0 3.2 0.00 0.00 0.00 92 1016.3
20240221151526 5 190 3.2 3.2 0.00 0.00 0.00 92 1016.2
20240221150524 4 192 1.6 3.2 0.00 0.00 0.00 92 1016.0
20240221145521 4 0.0 3.2 0.00 0.00 0.00 94 1015.9
20240221144539 4 0.0 3.2 0.00 0.00 0.00 94 1016.0
20240221143517 4 0.0 1.6 0.00 0.00 0.00 94 1015.7
20240221142535 4 212 1.6 3.2 0.00 0.00 0.00 94 1015.7
20240221141533 4 0.0 1.6 0.00 0.00 0.00 93 1015.9
20240221140530 4 226 1.6 3.2 0.00 0.00 0.00 94 1015.8
20240221135529 4 104 0.0 3.2 0.00 0.00 0.00 93 1015.8
20240221134526 4 229 1.6 3.2 0.00 0.00 0.00 93 1015.9
20240221133523 4 0.0 3.2 0.00 0.00 0.00 94 1015.6
20240221132542 4 233 3.2 6.4 0.00 0.00 0.00 93 1015.4
20240221131519 4 137 0.0 3.2 0.00 0.00 0.00 93 1015.5
20240221130517 4 220 1.6 3.2 0.00 0.00 0.00 92 1015.5
20240221125535 4 258 1.6 3.2 0.00 0.00 0.00 92 1015.4
20240221124533 5 347 3.2 3.2 0.00 0.00 0.00 91 1015.3
20240221123530 5 0.0 3.2 0.00 0.00 0.00 91 1015.4
20240221122527 5 282 3.2 4.8 0.00 0.00 0.00 92 1015.4
20240221121525 5 256 1.6 3.2 0.00 0.00 0.00 92 1015.4
20240221120545 5 257 1.6 3.2 0.00 0.00 0.00 91 1015.4
20240221115520 5 316 3.2 3.2 0.00 0.00 0.00 91 1015.4